User: anonymous   Login
Location: Unspecified
(0.0000°N, 0.0000°E)
Time: 13:40:47
(UTC+02:00)
Language:

Cosmos 1703 - Orbit

View from above orbital plane
View from above orbital plane
View from above satellite
View from above satellite

Ground track
Ground track

The orbit data is extracted from the following two-line orbital elements,

1 16262U 85108A   18111.11895096  .00000065  00000-0  21172-5 0  9999
2 16262  82.4764 307.4443 0010538 300.1648  59.8537 15.10713791765385
Epoch (UTC): 21 April 2018 02:51:17
Eccentricity: 0.0010538
inclination: 82.4764°
perigee height: 527 km
apogee height: 541 km
right ascension of ascending node: 307.4443°
argument of perigee: 300.1648°
revolutions per day: 15.10713791
mean anomaly at epoch: 59.8537°
orbit number at epoch: 76538

The dashed part of the orbit path shows where the satellite is in the earth's shadow,  

DLR